Home > Time Zones > World Clock > Weather > Iran > Gorgan > Past weeks

Flag for Iran Weather past 2 weeks in Gorgan, Iran

Now
86 °F

Passing clouds.


Feels Like: 92 °F
Forecast: 73 / 95 °F
Wind: 16 mph from Northwest

Location: Gorgan Airport

Current Time: Aug 1, 2014 at 6:54:55 PM

Latest Report: Aug 1, 2014 at 6:30 PM


Visibility: N/A

Pressure: 29.77 "Hg

Humidity: 62%

Dew point: 72 °F

Location of GorganLocation

Historic Weather in Gorgan — Graph

°F

Gorgan temperature yesterday

Maximum temperature yesterday: 91 °F (at 2:30 PM)
Minimum temperature yesterday: 70 °F (at 3:30 AM)
Average temperature yesterday: 79 °F

Past Weeks' High & Low Weather Summary

 TemperatureHumidityPressure
High99 °F (Jul 18, 4:30 PM)94% (Jul 18, 11:30 PM)30.07 "Hg (Jul 18, 11:30 PM)
Low70 °F (Jul 23, 4:30 AM)32% (Jul 23, 1:30 PM)29.53 "Hg (Jul 19, 2:30 AM)
Average83 °F67%29.77 "Hg
* Reported Jul 17 5:30 PM — Aug 1 5:30 PM, Gorgan, Weather by CustomWeather, © 2014

Note: Actual official high and low records may vary slightly from our data, if they occured in-between our weather recording intervals... More about our weather records

Advertising

Gorgan weather history for previous 24 hours

 ConditionsComfort  
Time TempWeatherWind HumidityBarometerVisibility
5:30 PM
Aug 1
91 °FPassing clouds.12 mph49%29.77 "HgN/A
5:00 PM93 °FPassing clouds.9 mph44%29.77 "HgN/A
4:30 PM93 °FPassing clouds.9 mph44%29.77 "HgN/A
3:30 PM95 °FPassing clouds.7 mph39%29.77 "HgN/A
2:30 PM93 °FPassing clouds.No wind44%29.80 "HgN/A
2:00 PM91 °FPassing clouds.No wind46%29.80 "HgN/A
1:30 PM90 °FPassing clouds.No wind49%29.83 "HgN/A
12:30 PM90 °FPassing clouds.5 mph46%29.86 "HgN/A
11:30 AM86 °FPassing clouds.5 mph55%29.86 "HgN/A
10:30 AM84 °FPassing clouds.5 mph66%29.86 "HgN/A
10:00 AM84 °FPassing clouds.5 mph62%29.86 "HgN/A
9:30 AM82 °FPassing clouds.No wind66%29.89 "HgN/A
8:30 AM81 °FScattered clouds.No wind70%29.89 "HgN/A
7:30 AM77 °FScattered clouds.No wind83%29.89 "HgN/A
6:30 AM75 °FPassing clouds.No wind83%29.86 "HgN/A
5:30 AM75 °FPartly cloudy.No wind89%29.86 "HgN/A
4:30 AM73 °FPartly cloudy.No wind83%29.86 "HgN/A
3:30 AM73 °FPartly cloudy.No wind89%29.86 "HgN/A
2:30 AM73 °FPartly cloudy.No wind83%29.86 "HgN/A
1:30 AM73 °FPartly cloudy.No wind83%29.86 "HgN/A
12:30 AM73 °FPartly cloudy.No wind89%29.86 "HgN/A
12:00 AM75 °FPartly cloudy.No wind89%29.86 "HgN/A
11:30 PM
Jul 31
75 °FPartly cloudy.7 mph89%29.86 "HgN/A
11:00 PM75 °FPartly cloudy.9 mph89%29.86 "HgN/A
10:30 PM75 °FMostly cloudy.7 mph83%29.86 "Hg5 mi
10:00 PM77 °FPartly cloudy.7 mph74%29.86 "HgN/A
9:30 PM77 °FMostly cloudy.7 mph74%29.86 "Hg5 mi
9:00 PM77 °FBroken clouds.12 mph74%29.86 "Hg5 mi
8:30 PM77 °FSprinkles. Broken clouds.7 mph74%29.83 "Hg5 mi
7:30 PM82 °FScattered clouds.12 mph66%29.83 "HgN/A
7:00 PM82 °FScattered clouds.16 mph66%29.80 "HgN/A
6:30 PM86 °FScattered clouds.14 mph55%29.80 "HgN/A
Weather by CustomWeather, © 2014

See weather overviewHow to use our weather pages